[[{"header":{"parameterUnit":"m.s-1","parameterCategory":1,"la1":30.2991,"la2":30.254,"lo1":-89.0895,"lo2":-89.0444,"dy":0.0017,"dx":0.0017,"nx":28,"ny":28,"refTime":"2023-10-12T09:00:00:Z","depth":0,"parameterNumber":2,"parameterNumberName":"U-component_of_WINDS"},"data":[0,0,0,0,0,0,0,0,0,0,0,0,0,0,0,0,0,0,0,0,0,0,0,0,0,0,0,0,0,0,0,0,0,0,0,0,0,0,0,0,0,0,0,0,0,0,0,0,0,0,0,0,0,0,0,0,0,0,-1.8866,-1.8867,0,-1.8939,-1.894,-1.8941,-1.8896,-1.8894,-1.8892,-1.889,-1.8963,-1.8967,-1.8971,0,0,0,0,0,0,0,0,0,0,0,0,0,-1.8686,-1.8689,-1.8866,-1.8867,-1.8868,-1.8939,-1.894,-1.8941,-1.8896,-1.8894,-1.8891,-1.8889,-1.8962,-1.8966,-1.8971,0,0,0,0,0,0,0,0,0,0,0,0,0,-1.8762,-1.8691,-1.8866,-1.8854,-1.8854,-1.8939,-1.894,-1.8941,-1.8897,-1.8894,-1.8891,-1.8888,-1.896,-1.8966,-1.8972,-1.9072,0,0,-1.899,-1.8992,0,0,0,0,0,0,0,0,-1.8758,-1.8769,-1.8855,-1.8855,-1.8855,-1.8905,-1.8903,-1.8985,-1.8898,-1.8881,-1.889,-1.8886,-1.8946,-1.8953,-1.8974,-1.9075,-1.9078,-1.899,-1.8994,-1.8996,-1.8998,0,0,0,0,0,0,0,-1.8753,-1.8765,-1.8895,-1.8857,-1.8857,-1.8845,-1.8852,-1.8919,-1.893,-1.8882,-1.8879,-1.8888,-1.8946,-1.8968,-1.8975,-1.9079,-1.899,-1.8995,-1.8999,-1.9001,-1.9265,-1.9269,0,0,0,0,0,0,-1.8748,-1.8761,-1.8893,-1.8897,-1.8798,-1.8851,-1.8859,-1.8892,-1.893,-1.8932,-1.8891,-1.8886,-1.896,-1.8968,-1.8978,-1.9097,-1.8996,-1.9002,-1.9005,-1.9262,-1.9266,-1.927,0,0,0,0,0,0,-1.8745,-1.8761,-1.889,-1.8828,-1.8844,-1.8857,-1.8895,-1.8896,-1.8918,-1.8936,-1.8938,-1.8912,-1.8958,-1.8969,-1.9049,-1.9099,-1.9004,-1.901,-1.9258,-1.9263,-1.9268,-1.9336,0,0,0,0,0,0,-1.874,-1.876,-1.8798,-1.883,-1.8847,-1.8961,-1.8898,-1.8899,-1.8929,-1.8923,-1.8956,-1.8959,-1.8956,-1.904,-1.9054,-1.9105,-1.9014,-1.9253,-1.926,-1.9266,-1.933,-1.9343,-1.9355,0,0,0,0,0,-1.8734,-1.8815,-1.8801,-1.8817,-1.8896,-1.8964,-1.8974,-1.8969,-1.8933,-1.8971,-1.8983,-1.8958,-1.9091,-1.9048,-1.9064,-1.9118,-1.925,-1.9258,-1.9266,-1.9324,-1.9341,-1.9355,0,0,0,0,0,0,-1.8789,-1.8819,-1.8803,-1.8897,-1.8928,-1.8956,-1.9005,-1.8987,-1.9028,-1.9021,-1.9013,-1.9021,-1.9104,-1.9118,-1.9071,-1.9216,-1.9165,-1.9176,-1.9203,-1.9219,-1.9232,-1.9227,-1.9019,0,0,0,0,0,-1.8812,-1.8865,-1.8887,-1.8968,-1.8984,-1.8992,-1.9021,-1.9015,-1.9046,-1.9059,-1.9076,-1.9107,-1.9156,-1.9188,-1.9234,-1.9331,-1.9337,-1.9375,-1.9388,-1.9398,-1.9408,-1.946,-1.9477,-1.9295,-1.9295,-1.9295,0,0,-1.886,-1.8883,-1.8917,-1.898,-1.9003,-1.9057,-1.9003,-1.9063,-1.9103,-1.9068,-1.9144,-1.9158,-1.9192,-1.928,-1.932,-1.9295,-1.946,-1.9408,-1.9416,-1.9421,-1.947,-1.9487,-1.9502,-1.9301,-1.93,-1.9299,0,0,-1.8976,-1.8999,-1.9068,-1.9092,-1.9128,-1.9133,-1.9149,-1.918,-1.9188,-1.9264,-1.9238,-1.9285,-1.9369,-1.9394,-1.9418,-1.9542,-1.952,-1.9557,-1.9623,-1.9674,-1.9688,-1.9701,-1.9745,-1.9761,-1.9567,-1.9567,-1.9567,0,-1.9031,-1.9113,-1.9106,-1.9168,-1.9196,-1.9166,-1.9236,-1.926,-1.9309,-1.9328,-1.9299,-1.9404,-1.9425,-1.9518,-1.9549,-1.9569,-1.9587,-1.9554,-1.9686,-1.9699,-1.9711,-1.9753,-1.9769,-1.9571,-1.9571,-1.957,-1.957,0,-1.9179,-1.9236,-1.9287,-1.9336,-1.9369,-1.9435,-1.9437,-1.9472,-1.9462,-1.9469,-1.9546,-1.957,-1.962,-1.9641,-1.9632,-1.9734,-1.9717,-1.9687,-1.9636,-1.9732,-1.9772,-1.9788,-1.9577,-1.9576,-1.9574,-1.9573,0,0,-1.9333,-1.9376,-1.9395,-1.9416,-1.9453,-1.9497,-1.956,-1.9609,-1.9639,-1.9673,-1.9726,-1.9797,-1.977,-1.9797,-1.979,-1.9834,-1.993,-1.9799,-1.98,-1.9823,-2.0043,-2.0065,-2.0084,-1.9916,-1.9919,-1.9921,-2.004,0,-1.9451,-1.9563,-1.9558,-1.9662,-1.9714,-1.9686,-1.9741,-1.9769,-1.9777,-1.9822,-1.983,-1.988,-1.9841,-1.9857,-1.9899,-1.991,-1.9975,-1.9901,-1.9964,-1.9967,-1.9957,-2.0105,-2.0129,-2.024,-2.0055,-2.0058,-2.006,0,-1.9604,-1.9644,-1.9754,-1.9783,-1.9804,-1.9854,-1.9898,-1.9941,-1.9972,-1.9974,-2.0004,-1.9989,-2.0052,-1.9999,-2.0085,-2.0035,-2.006,-2.0069,-2.0073,-2.008,-2.002,-2.0115,-2.0275,-2.0292,-2.0084,-2.0082,-2.008,0,-1.9706,-1.9787,-1.9863,-1.9882,-1.9917,-1.9953,-1.9969,-1.9996,-2.0026,-2.0064,-2.0083,-2.0127,-2.0152,-2.0186,-2.0184,-2.0145,-2.0271,-2.0218,-2.0275,-2.0275,-2.0304,-2.0302,-2.0471,-2.0319,-2.0319,-2.0318,-2.0318,0,-1.9839,-1.9907,-1.9909,-1.9956,-2.0031,-2.0024,-2.0098,-2.011,-2.0135,-2.0183,-2.016,-2.0206,-2.02,-2.0245,-2.0243,-2.0315,-2.0326,-2.0329,-2.0328,-2.0331,-2.0331,-2.0348,-2.0341,-2.0323,-2.0322,-2.0321,-2.032,0,-1.9966,-1.997,-2.0051,-2.0077,-2.0085,-2.0139,-2.0161,-2.0205,-2.0211,-2.0272,-2.0285,-2.0294,-2.0346,-2.0346,-2.0406,-2.0404,-2.0492,-2.0482,-2.0482,-2.048,-2.0537,-2.0532,-2.0723,-2.0748,-2.058,-2.0582,-2.0583,0,-2.0051,-2.0103,-2.0135,-2.0165,-2.0184,-2.0234,-2.0264,-2.0258,-2.029,-2.0328,-2.0367,-2.0417,-2.0457,-2.054,-2.0551,-2.0596,-2.0587,-2.0651,-2.0594,-2.0595,-2.0588,-2.0585,-2.059,-2.0662,-2.0664,-2.0666,-2.0667,0,-2.0201,-2.02,-2.0245,-2.029,-2.0326,-2.0362,-2.0394,-2.042,-2.0418,-2.0455,-2.0508,-2.0538,-2.0599,-2.0648,-2.0691,-2.0706,-2.0687,-2.0685,-2.07,-2.0705,-2.0703,-2.0705,-2.0513,-2.0681,-2.0679,-2.0678,-2.0678,-2.0677,-2.031,-2.0354,-2.0384,-2.0434,-2.0457,-2.0488,-2.053,-2.0541,-2.0585,-2.0635,-2.0628,-2.0687,-2.0715,-2.0771,-2.079,-2.0835,-2.0813,-2.0835,-2.0841,-2.0847,-2.0853,-2.0695,-2.0843,-2.0842,-2.0842,-2.0842,-2.0841,0,-2.0459,-2.0476,-2.0523,-2.0569,-2.0608,-2.0586,-2.062,-2.0654,-2.0706,-2.0734,-2.0774,-2.0834,-2.0882,-2.0896,-2.0941,-2.0975,-2.0967,-2.0987,-2.0985,-2.0989,-2.0871,-2.0853,-2.0993,-2.0993,-2.0993,-2.0993,-2.0993,-2.0993,-2.0542,-2.0616,-2.0618,-2.0703,-2.072,-2.0778,-2.08,-2.0827,-2.085,-2.0918,-2.0958,-2.0967,-2.0989,-2.1036,-2.1078,-2.1081,-2.1099,-2.1123,-2.1122,-2.1012,-2.0997,-2.0982,-2.0965,-2.1127,-2.1127,-2.1236,-2.1237,-2.1238]},{"header":{"parameterUnit":"m.s-1","parameterCategory":1,"la1":30.2991,"la2":30.254,"lo1":-89.0895,"lo2":-89.0444,"dy":0.0017,"dx":0.0017,"nx":28,"ny":28,"refTime":"2023-10-12T09:00:00:Z","depth":0,"parameterNumber":3,"parameterNumberName":"V-component_of_WINDS"},"data":[0,0,0,0,0,0,0,0,0,0,0,0,0,0,0,0,0,0,0,0,0,0,0,0,0,0,0,0,0,0,0,0,0,0,0,0,0,0,0,0,0,0,0,0,0,0,0,0,0,0,0,0,0,0,0,0,0,0,-3.8851,-3.8851,0,-3.8899,-3.89,-3.89,-3.8852,-3.885,-3.8848,-3.8846,-3.8893,-3.8896,-3.8899,0,0,0,0,0,0,0,0,0,0,0,0,0,-3.8712,-3.8715,-3.885,-3.8851,-3.8852,-3.8899,-3.89,-3.89,-3.8852,-3.885,-3.8848,-3.8845,-3.8892,-3.8895,-3.8899,0,0,0,0,0,0,0,0,0,0,0,0,0,-3.8767,-3.8716,-3.885,-3.8834,-3.8832,-3.8899,-3.89,-3.89,-3.8853,-3.885,-3.8847,-3.8844,-3.8891,-3.8895,-3.8899,-3.8984,0,0,-3.8913,-3.8915,0,0,0,0,0,0,0,0,-3.8764,-3.8772,-3.8835,-3.8835,-3.8834,-3.8867,-3.8868,-3.8928,-3.8853,-3.8845,-3.8846,-3.8843,-3.8886,-3.8891,-3.8906,-3.8986,-3.8988,-3.8913,-3.8916,-3.8918,-3.8919,0,0,0,0,0,0,0,-3.876,-3.877,-3.887,-3.8836,-3.8835,-3.8822,-3.8827,-3.8879,-3.8881,-3.8845,-3.8842,-3.8849,-3.8885,-3.8902,-3.8907,-3.8989,-3.8913,-3.8917,-3.892,-3.8922,-3.9138,-3.9141,0,0,0,0,0,0,-3.8759,-3.8767,-3.8868,-3.8871,-3.8791,-3.8827,-3.8832,-3.8859,-3.888,-3.8881,-3.8851,-3.8846,-3.8895,-3.8902,-3.8908,-3.9007,-3.8918,-3.8922,-3.8925,-3.9135,-3.9139,-3.9142,0,0,0,0,0,0,-3.8756,-3.8768,-3.8866,-3.8818,-3.883,-3.8832,-3.8863,-3.8861,-3.8878,-3.8884,-3.8884,-3.8868,-3.8893,-3.8902,-3.8965,-3.9008,-3.8924,-3.8928,-3.9131,-3.9136,-3.914,-3.9207,0,0,0,0,0,0,-3.8752,-3.8768,-3.8801,-3.8819,-3.8832,-3.8924,-3.8865,-3.8864,-3.8886,-3.888,-3.89,-3.8901,-3.8892,-3.8959,-3.897,-3.9013,-3.8932,-3.9128,-3.9134,-3.9139,-3.9201,-3.9213,-3.9224,0,0,0,0,0,-3.8748,-3.8817,-3.8803,-3.8815,-3.8874,-3.8926,-3.8934,-3.8923,-3.889,-3.8923,-3.8926,-3.89,-3.9002,-3.8966,-3.8977,-3.9023,-3.9125,-3.9132,-3.9139,-3.9196,-3.9211,-3.9223,0,0,0,0,0,0,-3.8803,-3.882,-3.8804,-3.8882,-3.8903,-3.8918,-3.8959,-3.894,-3.897,-3.8963,-3.8948,-3.8952,-3.9019,-3.9027,-3.8987,-3.9104,-3.9058,-3.9067,-3.9097,-3.9111,-3.9123,-3.9119,-3.8936,0,0,0,0,0,-3.8825,-3.8867,-3.8878,-3.8946,-3.8958,-3.8957,-3.8979,-3.8969,-3.899,-3.8999,-3.9007,-3.9027,-3.9064,-3.9088,-3.9122,-3.9202,-3.9204,-3.9238,-3.925,-3.9259,-3.9268,-3.9309,-3.9324,-3.9165,-3.9164,-3.9164,0,0,-3.8869,-3.8883,-3.8911,-3.8958,-3.8973,-3.9016,-3.8965,-3.9012,-3.9043,-3.9005,-3.9066,-3.9073,-3.9094,-3.9166,-3.9198,-3.9174,-3.9312,-3.9268,-3.9275,-3.9279,-3.9317,-3.9332,-3.9346,-3.9169,-3.9168,-3.9168,0,0,-3.8972,-3.8988,-3.9045,-3.9062,-3.9086,-3.9085,-3.9098,-3.9116,-3.9119,-3.918,-3.9152,-3.9188,-3.9251,-3.9267,-3.9284,-3.9392,-3.9368,-3.9403,-3.9462,-3.9503,-3.9515,-3.9526,-3.9564,-3.9577,-3.9411,-3.9411,-3.9411,0,-3.9024,-3.9089,-3.9077,-3.9127,-3.9147,-3.9116,-3.9173,-3.9189,-3.9222,-3.9237,-3.921,-3.9288,-3.9301,-3.9375,-3.9401,-3.9416,-3.943,-3.9401,-3.9515,-3.9526,-3.9536,-3.9571,-3.9585,-3.9415,-3.9415,-3.9414,-3.9414,0,-3.9151,-3.9196,-3.9239,-3.9273,-3.9299,-3.9352,-3.9347,-3.9373,-3.9361,-3.9362,-3.9423,-3.9436,-3.9472,-3.9488,-3.9477,-3.9561,-3.9545,-3.9517,-3.947,-3.9555,-3.9588,-3.9602,-3.9421,-3.942,-3.9418,-3.9417,0,0,-3.9291,-3.9317,-3.9333,-3.9348,-3.9371,-3.9405,-3.9456,-3.9491,-3.9514,-3.9538,-3.9579,-3.9633,-3.9607,-3.9625,-3.9615,-3.965,-3.9733,-3.9617,-3.9617,-3.9638,-3.9825,-3.9846,-3.9862,-3.9718,-3.972,-3.9722,-3.9823,0,-3.9394,-3.9484,-3.9474,-3.9559,-3.9599,-3.9569,-3.9612,-3.9631,-3.9633,-3.9666,-3.9667,-3.9706,-3.9669,-3.9679,-3.9713,-3.9716,-3.977,-3.9709,-3.9754,-3.9756,-3.975,-3.9879,-3.9902,-3.9996,-3.9836,-3.9838,-3.984,0,-3.9527,-3.9556,-3.9645,-3.9661,-3.9677,-3.9717,-3.9748,-3.9781,-3.98,-3.9799,-3.982,-3.9802,-3.9851,-3.9803,-3.987,-3.9828,-3.9846,-3.985,-3.9853,-3.9857,-3.9803,-3.9886,-4.0026,-4.004,-3.986,-3.9858,-3.9857,0,-3.9619,-3.968,-3.9741,-3.9754,-3.9775,-3.9803,-3.9813,-3.983,-3.9851,-3.9878,-3.9891,-3.9923,-3.994,-3.9964,-3.9955,-3.9921,-4.0023,-3.9975,-4.0022,-4.0023,-4.0045,-4.0044,-4.019,-4.0058,-4.0058,-4.0057,-4.0057,0,-3.9734,-3.979,-3.9782,-3.982,-3.988,-3.9868,-3.9927,-3.9933,-3.9948,-3.9985,-3.996,-3.9995,-3.9981,-4.0014,-4.0007,-4.0063,-4.0071,-4.007,-4.0068,-4.0072,-4.0072,-4.0084,-4.0077,-4.0061,-4.006,-4.006,-4.0059,0,-3.9848,-3.9845,-3.9909,-3.9924,-3.9928,-3.9972,-3.9983,-4.0018,-4.0017,-4.0064,-4.0074,-4.0073,-4.0111,-4.0104,-4.0146,-4.0141,-4.0211,-4.02,-4.0204,-4.0202,-4.025,-4.0245,-4.0408,-4.0428,-4.0283,-4.0285,-4.0286,0,-3.9922,-3.9964,-3.9982,-4.0006,-4.0018,-4.0056,-4.0077,-4.0066,-4.0089,-4.0114,-4.0145,-4.0181,-4.0209,-4.027,-4.0272,-4.0304,-4.0293,-4.0348,-4.0298,-4.0301,-4.0293,-4.0291,-4.0294,-4.0358,-4.036,-4.0361,-4.0362,0,-4.0053,-4.0049,-4.0082,-4.0115,-4.0142,-4.0167,-4.0189,-4.0209,-4.0199,-4.0226,-4.0265,-4.0287,-4.0329,-4.0365,-4.0394,-4.0402,-4.038,-4.0378,-4.0391,-4.0396,-4.0396,-4.0396,-4.0231,-4.0374,-4.0373,-4.0372,-4.0372,-4.0371,-4.0148,-4.0184,-4.0202,-4.0239,-4.0255,-4.0276,-4.0308,-4.0312,-4.0345,-4.0379,-4.037,-4.0413,-4.043,-4.0467,-4.0478,-4.0511,-4.0491,-4.0509,-4.0514,-4.0518,-4.0524,-4.0391,-4.0517,-4.0516,-4.0516,-4.0516,-4.0515,0,-4.0277,-4.0288,-4.0322,-4.0354,-4.0383,-4.0361,-4.0384,-4.0409,-4.0448,-4.0466,-4.0494,-4.0538,-4.0571,-4.0576,-4.0608,-4.0633,-4.0624,-4.0642,-4.0639,-4.0641,-4.0541,-4.0526,-4.0649,-4.0649,-4.0649,-4.0649,-4.0649,-4.0648,-4.0348,-4.0406,-4.0405,-4.047,-4.0479,-4.0523,-4.0537,-4.0556,-4.057,-4.062,-4.0649,-4.0652,-4.0664,-4.0696,-4.0725,-4.0725,-4.0738,-4.076,-4.0756,-4.0662,-4.0649,-4.0636,-4.0622,-4.0763,-4.0763,-4.0854,-4.0855,-4.0855]}]]